| time (UTC) | temp F | wind direction | speed MPH | gust MPH | rain 1hr in | rain 24hr in | rain mn in | humidity % | barometer mb |
| 20260502235004 | 42 | 266 | 1.0 | 5.0 | 0.00 | 0.00 | 0.00 | 70 | 994.7 |
| 20260502234004 | 42 | 233 | 3.0 | 8.0 | 0.00 | 0.00 | 0.00 | 69 | 994.8 |
| 20260502233004 | 42 | 216 | 3.0 | 8.0 | 0.00 | 0.00 | 0.00 | 68 | 994.9 |
| 20260502232005 | 42 | 228 | 3.0 | 7.0 | 0.00 | 0.00 | 0.00 | 68 | 994.8 |
| 20260502231004 | 43 | 213 | 3.0 | 6.0 | 0.00 | 0.00 | 0.00 | 66 | 994.8 |
| 20260502230004 | 43 | 245 | 3.0 | 7.0 | 0.00 | 0.00 | 0.00 | 66 | 994.6 |
| 20260502225004 | 43 | 267 | 1.0 | 7.0 | 0.00 | 0.00 | 0.00 | 67 | 994.6 |
| 20260502223004 | 43 | 238 | 3.0 | 9.0 | 0.00 | 0.00 | 0.00 | 64 | 994.3 |
| 20260502221004 | 43 | 214 | 4.0 | 7.0 | 0.00 | 0.00 | 0.00 | 65 | 994.4 |
| 20260502220003 | 44 | 240 | 3.0 | 10.0 | 0.00 | 0.00 | 0.00 | 65 | 994.7 |
| 20260502215005 | 44 | 236 | 2.0 | 8.0 | 0.00 | 0.00 | 0.00 | 64 | 994.7 |
| 20260502213004 | 44 | 169 | 3.0 | 9.0 | 0.00 | 0.00 | 0.00 | 64 | 994.4 |
| 20260502211003 | 43 | 229 | 4.0 | 10.0 | 0.00 | 0.00 | 0.00 | 66 | 994.6 |
| 20260502204004 | 43 | 231 | 6.0 | 9.0 | 0.00 | 0.00 | 0.00 | 69 | 994.6 |
| 20260502203004 | 43 | 209 | 3.0 | 14.0 | 0.00 | 0.00 | 0.00 | 69 | 994.8 |
| 20260502202004 | 42 | 210 | 5.0 | 14.0 | 0.00 | 0.00 | 0.00 | 69 | 994.7 |
| 20260502201004 | 42 | 213 | 4.0 | 12.0 | 0.00 | 0.00 | 0.00 | 71 | 995.1 |
| 20260502200005 | 42 | 212 | 6.0 | 13.0 | 0.00 | 0.00 | 0.00 | 68 | 995.1 |
| 20260502195004 | 42 | 198 | 6.0 | 12.0 | 0.00 | 0.00 | 0.00 | 66 | 995.0 |
| 20260502194004 | 43 | 204 | 5.0 | 15.0 | 0.00 | 0.00 | 0.00 | 65 | 995.2 |
| 20260502193004 | 43 | 225 | 4.0 | 8.0 | 0.00 | 0.00 | 0.00 | 65 | 995.1 |
| 20260502191003 | 42 | 172 | 5.0 | 14.0 | 0.00 | 0.00 | 0.00 | 66 | 995.4 |
| 20260502190004 | 42 | 198 | 3.0 | 10.0 | 0.00 | 0.01 | 0.00 | 66 | 995.2 |
| 20260502184004 | 43 | 189 | 2.0 | 10.0 | 0.00 | 0.01 | 0.00 | 67 | 995.2 |
| 20260502182006 | 43 | 211 | 3.0 | 12.0 | 0.00 | 0.01 | 0.00 | 63 | 994.9 |
| 20260502164005 | 45 | 223 | 4.0 | 8.0 | 0.00 | 0.02 | 0.00 | 56 | 995.0 |
| 20260502162004 | 45 | 235 | 4.0 | 10.0 | 0.00 | 0.03 | 0.00 | 56 | 995.2 |
| 20260502161005 | 44 | 257 | 3.0 | 9.0 | 0.00 | 0.04 | 0.00 | 56 | 995.2 |
| 20260502123004 | 40 | 248 | 3.0 | 8.0 | 0.00 | 0.04 | 0.00 | 71 | 995.9 |
| 20260502121003 | 39 | 227 | 3.0 | 8.0 | 0.00 | 0.04 | 0.00 | 76 | 995.6 |
| 20260502115004 | 38 | 235 | 4.0 | 8.0 | 0.00 | 0.04 | 0.00 | 77 | 995.5 |
| 20260502114004 | 38 | 209 | 3.0 | 5.0 | 0.00 | 0.04 | 0.00 | 79 | 995.6 |
| 20260502112004 | 36 | 272 | 1.0 | 3.0 | 0.00 | 0.04 | 0.00 | 82 | 995.5 |
| 20260502110004 | 35 | 255 | 2.0 | 2.0 | 0.00 | 0.04 | 0.00 | 85 | 995.0 |
| 20260502105004 | 34 | 271 | 1.0 | 2.0 | 0.00 | 0.04 | 0.00 | 87 | 995.1 |
| 20260502103005 | 33 | 271 | 1.0 | 3.0 | 0.00 | 0.04 | 0.00 | 88 | 995.2 |
| 20260502091003 | 33 | 273 | 1.0 | 2.0 | 0.00 | 0.04 | 0.00 | 89 | 994.7 |
| 20260502071004 | 35 | 276 | 0.0 | 3.0 | 0.00 | 0.04 | 0.00 | 84 | 994.3 |
| 20260502070004 | 35 | 256 | 2.0 | 5.0 | 0.00 | 0.04 | 0.00 | 83 | 994.4 |
| 20260502065004 | 35 | 270 | 1.0 | 6.0 | 0.00 | 0.04 | 0.00 | 83 | 994.4 |
| 20260502064004 | 35 | 267 | 1.0 | 5.0 | 0.00 | 0.04 | 0.00 | 83 | 994.4 |
| 20260502063004 | 35 | 262 | 2.0 | 5.0 | 0.00 | 0.04 | 0.00 | 83 | 994.4 |
| 20260502062004 | 35 | 251 | 1.0 | 3.0 | 0.00 | 0.04 | 0.00 | 83 | 994.2 |
| 20260502061004 | 36 | 271 | 1.0 | 3.0 | 0.00 | 0.04 | 0.00 | 83 | 994.4 |
| 20260502060003 | 36 | 267 | 1.0 | 3.0 | 0.00 | 0.04 | 0.00 | 82 | 994.5 |
| 20260502055004 | 36 | 276 | 1.0 | 2.0 | 0.00 | 0.04 | 0.00 | 81 | 994.6 |
| 20260502054005 | 37 | 264 | 1.0 | 3.0 | 0.00 | 0.04 | 0.00 | 79 | 994.7 |
| 20260502053004 | 37 | 249 | 2.0 | 5.0 | 0.00 | 0.04 | 0.00 | 79 | 994.7 |
| 20260502052004 | 37 | 244 | 2.0 | 5.0 | 0.00 | 0.04 | 0.00 | 78 | 994.6 |
| 20260502051004 | 38 | 270 | 1.0 | 6.0 | 0.00 | 0.04 | 0.00 | 78 | 994.3 |
| 20260502050004 | 38 | 285 | 1.0 | 6.0 | 0.00 | 0.04 | 0.00 | 77 | 994.2 |
| 20260502045004 | 39 | 261 | 2.0 | 5.0 | 0.00 | 0.04 | 0.00 | 75 | 994.3 |
| 20260502044004 | 39 | 267 | 2.0 | 8.0 | 0.00 | 0.04 | 0.00 | 73 | 994.1 |
| 20260502043004 | 40 | 261 | 2.0 | 6.0 | 0.00 | 0.04 | 0.00 | 72 | 993.8 |
| 20260502042003 | 40 | 261 | 2.0 | 6.0 | 0.00 | 0.04 | 0.00 | 71 | 993.7 |
| 20260502041004 | 40 | 284 | 1.0 | 10.0 | 0.00 | 0.04 | 0.00 | 72 | 993.7 |
| 20260502040005 | 41 | 258 | 3.0 | 8.0 | 0.00 | 0.04 | 0.00 | 70 | 993.9 |
| 20260502034004 | 41 | 262 | 1.0 | 5.0 | 0.00 | 0.04 | 0.04 | 81 | 993.7 |
| 20260502033004 | 42 | 244 | 2.0 | 8.0 | 0.00 | 0.04 | 0.04 | 81 | 993.6 |
| 20260502032004 | 42 | 235 | 3.0 | 6.0 | 0.00 | 0.04 | 0.04 | 81 | 993.8 |
| 20260502031004 | 42 | 256 | 2.0 | 6.0 | 0.00 | 0.04 | 0.04 | 80 | 993.5 |
| 20260502025004 | 42 | 270 | 3.0 | 6.0 | 0.00 | 0.04 | 0.04 | 83 | 993.8 |
| 20260502024005 | 42 | 260 | 1.0 | 3.0 | 0.00 | 0.04 | 0.04 | 84 | 993.7 |
| 20260502023005 | 42 | 249 | 2.0 | 6.0 | 0.00 | 0.04 | 0.04 | 83 | 993.5 |
| 20260502021003 | 42 | 232 | 3.0 | 7.0 | 0.00 | 0.04 | 0.04 | 82 | 993.6 |
| 20260502020004 | 42 | 224 | 3.0 | 8.0 | 0.00 | 0.04 | 0.04 | 82 | 993.7 |
| 20260502015004 | 42 | 224 | 3.0 | 7.0 | 0.00 | 0.04 | 0.04 | 82 | 993.4 |
| 20260502014004 | 42 | 212 | 3.0 | 7.0 | 0.00 | 0.04 | 0.04 | 81 | 993.3 |
| 20260502013004 | 42 | 230 | 3.0 | 8.0 | 0.00 | 0.04 | 0.04 | 81 | 993.3 |
| 20260502012005 | 42 | 247 | 2.0 | 8.0 | 0.00 | 0.05 | 0.04 | 83 | 993.4 |
| 20260502011004 | 42 | 236 | 3.0 | 9.0 | 0.00 | 0.06 | 0.04 | 83 | 993.3 |
| 20260502010005 | 42 | 238 | 3.0 | 9.0 | 0.00 | 0.10 | 0.04 | 84 | 993.3 |
| 20260502005004 | 42 | 237 | 2.0 | 6.0 | 0.00 | 0.12 | 0.04 | 85 | 993.0 |
| 20260502004005 | 42 | 218 | 2.0 | 7.0 | 0.00 | 0.12 | 0.04 | 84 | 992.6 |
| 20260502003004 | 43 | 206 | 4.0 | 8.0 | 0.00 | 0.12 | 0.04 | 83 | 992.8 |
| 20260502002004 | 43 | 226 | 4.0 | 7.0 | 0.00 | 0.12 | 0.04 | 82 | 992.6 |
| 20260502001004 | 43 | 224 | 2.0 | 6.0 | 0.00 | 0.12 | 0.04 | 82 | 992.4 |
| 20260502000004 | 44 | 236 | 2.0 | 7.0 | 0.00 | 0.12 | 0.04 | 81 | 992.4 |